Index of /Inserts

[ICO]NameLast modifiedSize

[DIR]Parent Directory  -
[DIR]Description Files/22-Feb-2017 13:56 -
[   ]00000_Please Save This Box_Print.pdf14-Apr-2015 16:54 132K
[   ]00000_SBench_LeafPorometer Calibration Tag.lbx14-Apr-2015 16:54 454K
[   ]00000_SBench_PS-1 Tag.lbx14-Apr-2015 16:54 60K
[   ]10076_A Cleaning Solution_Print.eps14-Apr-2015 16:54 1.1M
[   ]10079_Dew Point Sensor B Series_Print.pdf14-Apr-2015 16:54 1.3M
[   ]10528_ Activated Charcoal Label.eps14-Apr-2015 16:54 548K
[   ]10577_Attention MSDS Data Sheets_Print.pdf14-Apr-2015 16:54 24K
[   ]10583_Glycerin MSDS_Print.pdf14-Apr-2015 16:54 61K
[   ]10583_Glycerin MSDS_Web.pdf14-Apr-2015 16:54 66K
[   ]10585_Arctic Silver_Print.pdf14-Apr-2015 16:54 177K
[   ]10585_Arctic Silver_Web.pdf14-Apr-2015 16:54 37K
[   ]10605_ProCheck Read Me First_Print.pdf14-Apr-2015 16:54 2.5M
[   ]10787_PS-1Tag_Print.lbx14-Apr-2015 16:54 74K
[   ]10872_Temperature Corrections_Print.pdf14-Apr-2015 16:54 501K
[   ]10890 AquaLab Customer Support Sticker.eps14-Apr-2015 16:54 693K
[   ]10891_Chamber Warning.eps14-Apr-2015 16:54 457K
[   ]13049_DataStation Outdoor Enclosure_Web.pdf14-Apr-2015 16:54 764K
[   ]13049_Datastation Outdoor Enclosure_Print.pdf14-Apr-2015 16:54 765K
[   ]13363_Em50 Port Configuration_Print.pdf14-Apr-2015 16:54 248K
[   ]13369_ECH2O Probe Installation Guide_Print.pdf14-Apr-2015 16:54 1.7M
[   ]13407_Decagon Box Stickers_Print.pdf14-Apr-2015 16:54 302K
[   ]13416_Leaf Porometer Box Sticker_Print.pdf14-Apr-2015 16:54 139K
[   ]13416_Leaf Porometer Box Sticker_Web.pdf14-Apr-2015 16:54 65K
[   ]13417_LP-80 Box Sticker_Print.pdf14-Apr-2015 16:54 107K
[   ]13424_Thermal Box Stickers_Print.pdf14-Apr-2015 16:54 439K
[   ]13438_Solar Radiation Sensor_Print.pdf14-Apr-2015 16:54 77K
[   ]13445_PS-1_Print.pdf14-Apr-2015 16:54 60K
[   ]13465_PYR_Print.pdf14-Apr-2015 16:54 206K
[   ]13494_Photon Flux Box Label_Print.pdf14-Apr-2015 16:54 396K
[   ]13496_PAR Photon Flux_Print.pdf14-Apr-2015 16:54 79K
[   ]13698_Em50R Configuration Card_Print.pdf14-Apr-2015 16:54 554K
[   ]13774_Pawkit Upgrade Kit_Print.pdf14-Apr-2015 16:54 100K
[   ]13888 Arctic Alumina SDS_Print.pdf14-Apr-2015 16:54 118K
[   ]13888 Arctic Alumina SDS_Web.pdf14-Apr-2015 16:54 128K
[   ]13930_Shipping Sticker_Print.pdf14-Apr-2015 16:54 33K
[   ]13951_Battery Change Label.eps14-Apr-2015 16:54 395K
[   ]13956_SC-1 Sensor Head Replacement Instructions_Print.pdf14-Apr-2015 16:54 102K
[   ]13956_SC-1 Sensor Head Replacement Instructions_Web.pdf14-Apr-2015 16:54 93K
[   ]13970_Em50 Box Sticker_Print.pdf14-Apr-2015 16:54 485K
[   ]13982_Calibration Certificate_Print.pdf14-Apr-2015 16:54 433K
[   ]13983_WP4C Stickers_Print.pdf14-Apr-2015 16:54 171K
[   ]13989_DG3 Label_Print.pdf14-Apr-2015 16:54 252K
[   ]14198_Moisture Sensor_Print.pdf14-Apr-2015 16:54 2.5M
[   ]14494_RJ45 Installation_Web.pdf14-Apr-2015 16:54 4.8M
[   ]14513 AquaLab Verification Standards.pdf14-Apr-2015 16:54 1.9M
[   ]14513_AquaLab Verification Standards_Print.pdf14-Apr-2015 16:54 20M
[   ]14513_AquaLab Verification Standards_Web.pdf14-Apr-2015 16:54 9.9M
[   ]14514_CTD Sensor Shipping Label_Print.pdf14-Apr-2015 16:54 10M
[   ]14515_AquaLab Box Label_Print.pdf14-Apr-2015 16:54 278K
[   ]14532_Trial Package Cups_Print.pdf14-Apr-2015 16:54 180K
[   ]14533_Trial Package Lids_Print.pdf14-Apr-2015 16:54 176K
[   ]14534_Stop and Verify_Print.pdf14-Apr-2015 16:54 261K
[   ]14558_Wall Mount Kit_Print.pdf14-Apr-2015 16:54 150K
[   ]14559_SRS Warning_Print.pdf14-Apr-2015 16:54 95K
[   ]14576_VSA Shipping Instructions_Print.pdf14-Apr-2015 16:54 1.1M
[   ]14589_AquaLab Block Case Label_Print.pdf14-Apr-2015 16:54 714K
[   ]14615_DG3 Title_Print.pdf14-Apr-2015 16:54 267K
[   ]14617_Serial Number TrueDry_Print.eps14-Apr-2015 16:54 498K
[   ]14619_Verification Instructions for VP-3_Print.pdf14-Apr-2015 16:54 40K
[   ]14620_Verifification Block Sticker_Print.pdf14-Apr-2015 16:54 289K
[   ]14646_Aqualab_Packaging_Print.pdf14-Apr-2015 16:54 9.9M
[   ]14651_PWS_Connector_Kit_Label_Print.pdf14-Apr-2015 16:54 1.1M
[   ]14653_EM50GSIM_Print.pdf14-Apr-2015 16:54 657K
[   ]14653_EM50GSIM_Web.pdf14-Apr-2015 16:54 655K
[   ]14654_AquaLab TDL Box Label_Print.pdf14-Apr-2015 16:54 124K
[   ]14952_Kikkoman_Package_Label_Print.pdf14-Apr-2015 16:54 37K
[   ]14956_VSA Humidity and Temperature Table_Print.pdf14-Apr-2015 16:54 87K
[   ]14956_VSA Humidity and Temperature Table_Web.pdf14-Apr-2015 16:54 103K
[   ]14957_InfaredThermometer_Print.pdf14-Apr-2015 16:54 67K
[   ]14958-A_MAT Booklet_Print.pdf14-Apr-2015 16:54 96K
[   ]14958-B_MAT Wrap_Print.pdf14-Apr-2015 16:54 358K
[   ]14962_EM50G_Solar-Battery_Warning_Sticker.eps14-Apr-2015 16:54 964K
[   ]14970_DHIPackingList_Web.pdf21-Apr-2015 11:35 36K
[   ]13496_PAR Photon Flux_Web.pdf06-May-2015 10:07 55K
[   ]13438_SolarRadiationSensor_Web.pdf06-May-2015 10:22 1.7M
[   ]14994_Pre Packing List_Print.pdf20-May-2015 09:37 39K
[   ]14993_WP4C Packing List_Print.pdf20-May-2015 09:38 37K
[   ]14995_Series4 Packing List_Print.pdf20-May-2015 09:40 45K
[   ]14996_TDL Packing List_Print.pdf20-May-2015 09:41 43K
[   ]14997_TrueDry Packing List_Print.pdf20-May-2015 09:43 41K
[   ]14998_VSA Packing List_Print.pdf20-May-2015 09:44 47K
[   ]14992_SC-1 Packing List_Print.pdf29-May-2015 08:42 41K
[   ]18000-A_DataTrac_3-Booklet.pdf29-May-2015 10:15 66K
[   ]18000-B_DataTrac_3-Wrap.pdf29-May-2015 10:15 363K
[   ]13378_LP-80 Box Checklist_Print.pdf24-Jun-2015 14:27 38K
[   ]13937_USB Adapter_Print.pdf29-Jun-2015 13:36 894K
[   ]10584_Read This First_Print.pdf20-Jul-2015 11:00 2.4M
[   ]10566_Accupar LP-80_Print.pdf20-Jul-2015 15:31 129K
[   ]10612_Radiation Shield Instructions_Print.pdf06-Aug-2015 09:01 597K
[   ]18018_HoribaLabel_Print.pdf07-Aug-2015 13:51 956K
[   ]18020_Out-In_Print.pdf21-Aug-2015 16:06 679K
[   ]18021_AutoPumpLabel_Print.pdf28-Aug-2015 10:58 758K
[   ]14991_GroSens_Installation_Guide_Print.pdf02-Nov-2015 13:37 2.1M
[   ]14990_GroSens_Stand_Alone_Kit_Quick_Start_Guide_Print.pdf02-Nov-2015 13:47 3.3M
[   ]18029_Standards_Insert_Hang_Tag-4up_Print.pdf10-Nov-2015 15:54 62K
[   ]18031_GroSens_MultiSensor_QuickStart_Print.pdf17-Nov-2015 13:06 3.8M
[   ]10085-01, Description, ECRN-50 Label.pdf18-Jan-2016 11:49 100K
[   ]10085-01 ECRN-50 Label.eps18-Jan-2016 11:49 423K
[   ]10865_Cleaning Instructions_Print.pdf19-Jan-2016 14:16 59K
[   ]10865_Cleaning Instructions_Web.pdf19-Jan-2016 14:16 22K
[   ]18032_ThermalPrinterPlug_Print.pdf08-Apr-2016 12:56 30K
[   ]18025_Drierite_Print.pdf16-May-2016 15:53 113K
[   ]18025_Drierite_Web.pdf16-May-2016 15:53 135K
[   ]18039_GrosensGuarantee_Print.pdf18-May-2016 15:45 246K
[   ]18039_GrosensGuarantee_Web.pdf18-May-2016 15:45 111K
[   ]15297_FuseSheet_Print.pdf20-May-2016 14:31 919K
[   ]18041_PT-100_Print.pdf06-Jun-2016 14:08 2.5M
[   ]18042_PT-100_Box_Label_Print.pdf06-Jun-2016 14:08 1.0M
[   ]10662_BatteryPullTab_Print.pdf08-Jul-2016 12:40 29K
[   ]10575_SH-1 Verification Sticker_print.pdf20-Jul-2016 13:51 1.4M
[   ]13965_TR-1 Verification Stickers_Print.pdf20-Jul-2016 13:51 284K
[   ]14525_RK-1 Verification Standard Label_Print.pdf20-Jul-2016 13:51 268K
[   ]14976_CP103_Thermal-Mini-Printer_Print.pdf26-Jul-2016 14:39 90K
[   ]14976_CP103_Thermal-Mini-Printer_Web.pdf26-Jul-2016 14:39 182K
[   ]10574_Glycerin Verification Label_print.pdf27-Jul-2016 13:43 1.1M
[   ]18015_Cleaning Box Sticker_Print.pdf02-Oct-2016 15:00 12K
[   ]Verification Standards Box Art_Print.eps03-Oct-2016 13:19 4.4M
[   ]10219_Certificate of Calibration Envelope_Print.pdf27-Jan-2017 09:27 11K